"Pseudo-MPEC" for P116j5A

Created 2020 Sep 16 20:07:50 UT using Find_Orb

Click here for an explanation of pseudo-MPECs

 
 Astrometry: 
     P116j5A  C2020 08 12wEoGX7[=vnGSN$E:3'TK?uILweTyyP;vPeD.Y%SML,!P+p3$i,lXF51
     P116j5A  C2020 08 12wWfv0=k-mV+AstrometryUYZfk,rF7#pUjuxwuk/LvH3mmt:J%o]F51
     P116j5A  C2020 08 12COIh5Ahx_[C4Ztc%)5'Y7n*h@TG57D:f.[U44np1(*+kchjq9(!'F51
     P116j5A  C2020 08 12IV)^GMWb:ewIye=Ivy-'DpJ$aLuTTv[#,.lMJ`8!/kgo=Yy#sI[4F51
     P116j5A  C2020 08 17uVh),#a9B#!h*KNBL7g9q\1P_0-2YhF.x47*kxw3UxU_I)[Pt#CEF51
     P116j5A  C2020 08 179TORd\dw$0_VxQaD)8W_k3redacted;xnp4DEkhj*vt7;0!lifREF51
     P116j5A  C2020 08 17)`b2ytKja$81l]V]%!A!OX_4/N;trDclick4[0gU61p:J'`-8w2mF51
     P116j5A  C2020 08 22gBQ*'emV?.*7,L,[,=QFg3`NK]`VN`a2gYwEg'6M=i,xPI*vk=7?F51
     P116j5A  C2020 08 22htZ,*bFktgq-etF-GFJjR@V,q!Ib@k\TQgw2je*wPKv-rw1=O47_F51
     P116j5A  C2020 09 13@b`DJ[5a5gNRd:B)Dhere@3Ekd,a56for,Pi6Jmq:T-'\9Ew[)AUF51
     P116j5A  C2020 09 13@!MsAEb2+hb11R6%JPY11JVm_94;V/p6\i2[+Dfs,w_^3db=wMNmF51
     P116j5A  C2020 09 13w_`7xO,.^ytE1UPUu#;LbS:W$C,KAE2XC;d,y@+Mep\oKWr@)5sCF51
     P116j5A  C2020 09 16;iUs3;E.`1@]L^C%$NRCxh8explanation#EdC(y=o`[hsPg[jx!F51
     P116j5A  C2020 09 16MJ_q)=y5`R#RU=y+ppee0.*Pu?@tAGx(Drq^JO7%QTX6J(!j9!xCF51
     P116j5A  C2020 09 16QsbKm]sF7(cygN7GZE%pJ.L:GM8DYe`*3x#Y;aXX:XFCJGWoLM?4F51

Station data:
(F51) Pan-STARRS 1, Haleakala  (N20.707235 W156.255910)  US/Hawaii.
   Observers N. Primak, A. Schultz, S. Watters, J. Thiel, T. Goggia. Measurer
   PS1 Science Consortium. 1.8-m Ritchey-Chrétien + CCD.

Orbital elements:  P116j5A
   Perihelion 2021 May 24.043513 +/- 0.256 TT =  1:02:39 (JD 2459358.543513)
Epoch 2020 Sep 16.0 TT = JDT 2459108.5                        AutoNEOCP
M 318.31428938 +/- 0.07             (J2000 ecliptic)
n   0.16671382 +/- 0.000123         Peri.  238.12968 +/- 0.09
a   3.26955241 +/- 0.0016           Node   146.26553 +/- 0.0031
e   0.1808636 +/- 0.000172          Incl.   51.34038 +/- 0.024
P   5.91                   H 17.5   G  0.15   U  6.7  
q 2.67820935 +/- 0.00125    Q 3.86089547 +/- 0.00214
From 15 observations 2020 Aug. 12-Sept. 16; mean residual 0".11
Residuals in arcseconds: 
200812 F51  .03+  .10+    200817 F51  .03-  .07-    200913 F51  .22-  .03-    
200812 F51  .07-  .01+    200817 F51  .04+  .00     200913 F51  .11+  .02-    
200812 F51  .03-  .00     200822 F51  .05+  .01+    200916 F51  .10-  .19+    
200812 F51  .03-  .04-    200822 F51  .12+  .01+    200916 F51  .06-  .14-    
200817 F51  .04-  .02-    200913 F51  .18-  .00     200916 F51  .39+  .01+    

Ephemerides (geocentric):
Date (UTC) HH   RA              Dec         delta   r     elong  mag " sig PA
---- -- -- --  -------------   -----------  ------ ------ -----  --- ---- ---
2020 09 16 20  21 03 20.166   -17 08 25.99  2.0486 2.8849 139.2 22.1 .125  94
2020 09 16 21  21 03 18.984   -17 09 07.04  2.0490 2.8848 139.1 22.2 .128  94
2020 09 16 22  21 03 17.805   -17 09 48.06  2.0493 2.8847 139.1 22.2 .131  93
2020 09 16 23  21 03 16.627   -17 10 29.06  2.0497 2.8847 139.0 22.2 .133  93
2020 09 17 00  21 03 15.453   -17 11 10.03  2.0500 2.8846 139.0 22.2 .136  93
2020 09 17 01  21 03 14.280   -17 11 50.98  2.0504 2.8846 138.9 22.2 .139  93
2020 09 17 02  21 03 13.110   -17 12 31.91  2.0507 2.8845 138.9 22.2 .141  93
2020 09 17 03  21 03 11.943   -17 13 12.81  2.0511 2.8844 138.8 22.2 .144  93
2020 09 17 04  21 03 10.778   -17 13 53.69  2.0514 2.8844 138.8 22.2 .147  92
2020 09 17 05  21 03 09.615   -17 14 34.54  2.0518 2.8843 138.7 22.2 .149  92
2020 09 17 06  21 03 08.455   -17 15 15.37  2.0521 2.8843 138.7 22.2 .152  92
2020 09 17 07  21 03 07.297   -17 15 56.18  2.0525 2.8842 138.6 22.2 .155  92
2020 09 17 08  21 03 06.142   -17 16 36.96  2.0529 2.8841 138.6 22.2 .158  92
2020 09 17 09  21 03 04.989   -17 17 17.71  2.0532 2.8841 138.5 22.2 .160  92
2020 09 17 10  21 03 03.838   -17 17 58.45  2.0536 2.8840 138.5 22.2 .163  92
2020 09 17 11  21 03 02.690   -17 18 39.16  2.0539 2.8839 138.4 22.2 .166  92
2020 09 17 12  21 03 01.544   -17 19 19.84  2.0543 2.8839 138.4 22.2 .169  91
2020 09 17 13  21 03 00.401   -17 20 00.50  2.0547 2.8838 138.3 22.2 .171  91
2020 09 17 14  21 02 59.261   -17 20 41.14  2.0550 2.8838 138.3 22.2 .174  91
2020 09 17 15  21 02 58.122   -17 21 21.75  2.0554 2.8837 138.2 22.2 .177  91
2020 09 17 16  21 02 56.986   -17 22 02.34  2.0557 2.8836 138.2 22.2 .180  91
2020 09 17 17  21 02 55.853   -17 22 42.90  2.0561 2.8836 138.1 22.2 .183  91
2020 09 17 18  21 02 54.722   -17 23 23.44  2.0565 2.8835 138.1 22.2 .185  91
2020 09 17 19  21 02 53.594   -17 24 03.95  2.0568 2.8835 138.0 22.2 .188  91
2020 09 17 20  21 02 52.468   -17 24 44.45  2.0572 2.8834 138.0 22.2 .191  91
2020 09 17 21  21 02 51.344   -17 25 24.91  2.0575 2.8833 137.9 22.2 .194  90
2020 09 17 22  21 02 50.223   -17 26 05.35  2.0579 2.8833 137.9 22.2 .197  90
2020 09 17 23  21 02 49.104   -17 26 45.77  2.0583 2.8832 137.8 22.2 .200  90
2020 09 18 00  21 02 47.988   -17 27 26.16  2.0586 2.8831 137.8 22.2 .203  90
2020 09 18 01  21 02 46.874   -17 28 06.53  2.0590 2.8831 137.7 22.2 .206  90
2020 09 18 02  21 02 45.763   -17 28 46.88  2.0594 2.8830 137.7 22.2 .208  90
2020 09 18 03  21 02 44.654   -17 29 27.20  2.0597 2.8830 137.7 22.2 .211  90
2020 09 18 04  21 02 43.548   -17 30 07.49  2.0601 2.8829 137.6 22.2 .214  90
2020 09 18 05  21 02 42.444   -17 30 47.76  2.0605 2.8828 137.6 22.2 .217  90
2020 09 18 06  21 02 41.343   -17 31 28.01  2.0608 2.8828 137.5 22.2 .220  90
2020 09 18 07  21 02 40.244   -17 32 08.23  2.0612 2.8827 137.5 22.2 .223  90
2020 09 18 08  21 02 39.148   -17 32 48.43  2.0616 2.8827 137.4 22.2 .226  90
2020 09 18 09  21 02 38.054   -17 33 28.60  2.0619 2.8826 137.4 22.2 .229  89
2020 09 18 10  21 02 36.962   -17 34 08.75  2.0623 2.8825 137.3 22.2 .232  89
2020 09 18 11  21 02 35.873   -17 34 48.87  2.0627 2.8825 137.3 22.2 .235  89
2020 09 18 12  21 02 34.787   -17 35 28.97  2.0630 2.8824 137.2 22.2 .238  89
2020 09 18 13  21 02 33.703   -17 36 09.04  2.0634 2.8823 137.2 22.2 .241  89
2020 09 18 14  21 02 32.621   -17 36 49.09  2.0638 2.8823 137.1 22.2 .244  89
2020 09 18 15  21 02 31.542   -17 37 29.12  2.0641 2.8822 137.1 22.2 .247  89
2020 09 18 16  21 02 30.465   -17 38 09.12  2.0645 2.8822 137.0 22.2 .250  89
2020 09 18 17  21 02 29.391   -17 38 49.09  2.0649 2.8821 137.0 22.2 .253  89
2020 09 18 18  21 02 28.320   -17 39 29.04  2.0653 2.8820 136.9 22.2 .256  89
2020 09 18 19  21 02 27.251   -17 40 08.97  2.0656 2.8820 136.9 22.2 .259  89